ISS (ZARYA) 1 25544U 98067A 26246.56303513 .00003925 00000+0 79431-4 0 9992 2 25544 51.6315 272.1807 0005017 103.2669 256.8879 15.48980167583909 POISK 1 36086U 09060A 26246.56303513 .00003925 00000+0 79431-4 0 9990 2 36086 51.6315 272.1807 0005017 103.2669 256.8879 15.48980167584644 CSS (TIANHE) 1 48274U 21035A 26246.82758672 .00013897 00000+0 17372-3 0 9991 2 48274 41.4678 204.6008 0002189 256.3390 103.7205 15.59555987305448 ISS (NAUKA) 1 49044U 21066A 26246.56303513 .00003925 00000+0 79431-4 0 9998 2 49044 51.6315 272.1807 0005017 103.2669 256.8879 15.48980167584686 FREGAT DEB 1 49271U 11037PF 26246.05067251 .00014162 00000+0 20698-1 0 9990 2 49271 51.6375 127.4745 0934263 94.8790 275.9234 12.44049467234738 CSS (WENTIAN) 1 53239U 22085A 26246.57143724 .00011967 00000+0 15026-3 0 9992 2 53239 41.4679 206.1568 0002183 255.5702 104.4894 15.59545974288230 CSS (MENGTIAN) 1 54216U 22143A 26246.82758672 .00013897 00000+0 17372-3 0 9995 2 54216 41.4678 204.6008 0002189 256.3390 103.7205 15.59555987306071 HRC MONOBLOCK CAMERA 1 66052U 98067XR 26246.20760799 .00146604 18927-4 48842-3 0 9990 2 66052 51.6165 234.2883 0005775 66.2966 293.8645 15.89958373 50341 SZ-21 MODULE 1 66515U 25246C 26246.84813583 .00051847 00000+0 22445-3 0 9996 2 66515 41.4690 174.8200 0011121 229.2990 130.6892 15.83919313 46181 DUPLEX 1 66906U 98067XS 26246.31554735 .00036045 00000+0 31527-3 0 9998 2 66906 51.6245 253.2234 0004389 86.8444 273.3054 15.68542548 42896 KNACKSAT-2 1 67683U 98067XZ 26246.51656084 .00042884 00000+0 38997-3 0 9999 2 67683 51.6254 258.3445 0007537 115.8283 244.3491 15.67481086 32532 GXIBA-1 1 67685U 98067YB 26246.08035307 .00057875 00000+0 45497-3 0 9991 2 67685 51.6228 258.4036 0008291 108.9867 251.2030 15.70881204 32492 UITMSAT-2 1 67686U 98067YC 26246.07213513 .00118296 00000+0 61825-3 0 9996 2 67686 51.6219 253.8073 0008155 73.8678 286.3220 15.79943093 32553 LEOPARD 1 67687U 98067YD 26246.51243851 .00070522 00000+0 54716-3 0 9994 2 67687 51.6249 256.8244 0007955 80.9822 279.2075 15.71118045 32470 HMU-SAT2 1 67688U 98067YE 26246.32446296 .00087963 00000+0 56880-3 0 9993 2 67688 51.6238 254.7840 0007723 78.0166 282.1699 15.75294138 32488 CREW DRAGON 12 1 67796U 26031A 26246.43400287 .00003837 00000+0 77837-4 0 9991 2 67796 51.6311 272.8190 0004986 103.0101 257.1445 15.48978938584700 PROGRESS-MS 33 1 68319U 26058A 26246.56303513 .00003925 00000+0 79431-4 0 9990 2 68319 51.6315 272.1807 0005017 103.2669 256.8879 15.48980167584806 CYGNUS NG-24 1 68689U 26079A 26246.43400287 .00003837 00000+0 77837-4 0 9995 2 68689 51.6311 272.8190 0004986 103.0101 257.1445 15.48978938584825 PROGRESS-MS 34 1 68837U 26093A 26246.43400287 .00003837 00000+0 77837-4 0 9996 2 68837 51.6311 272.8190 0004986 103.0101 257.1445 15.48978938584864 TIANZHOU-10 1 69049U 26102A 26246.57143724 .00011967 00000+0 15026-3 0 9992 2 69049 41.4679 206.1568 0002183 255.5702 104.4894 15.59545974305944 SHENZHOU-23 (SZ-23) 1 69180U 26113A 26246.57143724 .00011967 00000+0 15026-3 0 9990 2 69180 41.4679 206.1568 0002183 255.5702 104.4894 15.59545974305658